Location: Hopewell Observatory
(38.8698°N, 77.6988°W)
Time: 20:39:55
(UTC-04:00)

Cosmos 2016 Rocket - Pass Details

Date: 26 May 2018
Orbit: 948 x 999 km, 83.0° (Epoch: 24 June)

Event Time Altitude Azimuth Distance (km) Brightness Sun altitude
Rises 20:44:25 0° 190° (S) 3,602 6.8 -4.0°
Reaches altitude 10° 20:46:54 10° 192° (SSW) 2,663 6.1 -4.4°
Maximum altitude 20:52:58 74° 278° (W) 990 4.3 -5.4°
Drops below altitude 10° 20:59:08 10° 3° (N) 2,701 6.8 -6.4°
Sets 21:01:40 0° 6° (N) 3,658 7.4 -6.8°
